Simultaneous Nadir Overpasses (SNOs) Predictions

Prediction of SNOs between METOP-A and NOAA-19 Satellite Orbit:

Table of predicted SNOs for the next 14.0 days since TLE Epoch: 7/16/2016
Index Date (METOP-A) Time (METOP-A) Lat,Lon (METOP-A) SZA (METOP-A ) Date (NOAA-19) Time (NOAA-19) Lat,Lon (NOAA-19) SZA (NOAA-19 ) Distance(km) Time Diff (sec)
1 07/22/2016 11:04:34 76.52, 15.50 56.31 07/22/2016 11:03:24 76.55, 13.59 56.36 49.74 70
2 07/22/2016 11:55:22 -76.25,-178.14 123.95 07/22/2016 11:54:14 -76.25,-177.99 123.95 4.12 68
3 07/22/2016 12:46:01 76.27, -10.73 56.08 07/22/2016 12:45:19 76.25, -10.73 56.05 2.86 42
4 07/22/2016 13:36:44 -76.23, 156.45 123.96 07/22/2016 13:36:16 -76.25, 156.51 123.94 2.85 28
5 07/22/2016 14:27:23 76.25, -36.14 56.07 07/22/2016 14:27:21 76.25, -36.23 56.07 2.45 2
6
